Regional Weather Roundup
Issued by NWS Northern Indiana

Home | Current Version | Previous Version | Text Only | Print | Product List | Glossary On
Versions: 1 2 3 4 5 6 7 8 9 10 11 12 13 14 15 16 17 18 19 20 21 22 23 24 25 26 27 28 29 30 31 32 33 34 35 36 37 38 39 40 41 42 43 44 45 46 47 48 49 50
000
ASUS43 KIWX 310910
RWRIWX

KIWX WEATHER ROUNDUP
NATIONAL WEATHER SERVICE NORTHERN INDIANA
500 AM EDT MON AUG 31 2015

NOTE: "FAIR" INDICATES FEW OR NO CLOUDS BELOW 12,000 FEET WITH NO
SIGNIFICANT WEATHER AND/OR OBSTRUCTIONS TO VISIBILITY.

* THESE STATIONS ARE NOT UNDER NWS QUALITY CONTROL. THEY ALSO MAY NOT
  REPORT WEATHER SUCH AS PRECIPITATION OR FOG.

INZ001>027-311000-
NORTHERN INDIANA

CITY           SKY/WX    TMP DP  RH WIND       PRES   REMARKS
GARY*          FOG       60  58  94 CALM      30.05R VSB 1/4
VALPARAISO     FOG       62  62 100 N3        30.05S VSB 1/4
MICHIGAN CITY* CLOUDY    61  61 100 CALM      30.05R FOG
LAPORTE*       FOG      N/A N/A N/A CALM      30.06R VSB 1/4
KNOX*          CLOUDY    59  59 100 CALM      30.03S VSB 1/4
SOUTH BEND     MOCLDY    62  60  93 CALM      30.06R FOG
GOSHEN         FOG       62  61  96 CALM      30.05S VSB 1/4
MONTICELLO*    CLEAR     69  69 100 CALM      30.03S
LOGANSPORT*    CLEAR     63  59  88 CALM      30.06S FOG
ROCHESTER*     FOG       64  64 100 CALM      30.05S VSB 1/4
WARSAW*        FOG       61  61 100 CALM      30.05S VSB<1/4
ANGOLA*        CLOUDY    64  63  94 CALM      30.06R VSB 0
FORT WAYNE     PTCLDY    65  63  93 S3        30.06S FOG
HUNTINGTON*    CLEAR     66  62  89 CALM      30.05S
PERU/GRISSOM   CLEAR     66  64  94 S3        30.05R
MARION*        CLEAR     63  58  83 CALM      30.06S HAZE

$$
INZ028>050-311000-
CENTRAL INDIANA

CITY           SKY/WX    TMP DP  RH WIND       PRES   REMARKS
LAFAYETTE      PTCLDY    65  65 100 CALM      30.04S FOG
KOKOMO*        CLEAR     64  61  88 S3        30.06R
MUNCIE*        CLEAR     67  66  97 SW6       30.07R
INDIANAPOLIS   MOCLDY    69  66  90 SW3       30.05S

$$
MIZ043>046-050>051-056>058-064>065-071>073-077>080-311000-
SOUTHWEST LOWER MICHIGAN

CITY           SKY/WX    TMP DP  RH WIND       PRES   REMARKS
BATTLE CREEK   MOCLDY    60  59  96 S3        30.06S FOG
BENTON HARBOR  PTCLDY    58  57  97 CALM      30.05R FOG
COLDWATER*     FOG       61  61 100 CALM      30.05S VSB 1/4
HILLSDALE*     FOG       61  61 100 CALM      30.06S VSB<1/4
HOLLAND        FOG       60  57  89 CALM      30.05S VSB 1/4
GRAND RAPIDS   FOG       64  64 100 W5        30.05S VSB 1
KALAMAZOO      FOG       60  58  92 CALM      30.06R VSB 1/4
STURGIS*       FOG       63  63 100 CALM      30.05R VSB 1/4
THREE RIVERS*  FOG       60  60 100 CALM      30.06R VSB 1/4

$$
OHZ001>008-015>018-024>025-311000-
NORTHWEST OHIO

CITY           SKY/WX    TMP DP  RH WIND       PRES   REMARKS
WAUSEON*       FOG       63  63 100 NW3       30.05S VSB<1/4
DEFIANCE       FOG       65  64  97 CALM      30.05S VSB 1/4
FINDLAY        CLEAR     67  64  90 W5        30.04S
TOLEDO EXPRESS CLEAR     66  64  93 CALM      30.04S
TOLEDO METCALF CLEAR     67  64  90 W3        30.05R
LIMA           CLEAR     66  64  93 S3        30.06S

$$
AND FOR LAKE MICHIGAN COASTAL AND OPEN LAKE BUOY OBSERVATIONS

STATION/POSITION TEMP    WIND        PRES    VSBY  WAVE
                 AIR SEA DIR/SP/G                  HT/PER
                 (F)     (DEG/KT/KT) (MB)    (MI)  (FT/S)
MICHIGAN CITY     66     120/  6/  7   N/A
BURNS HARBOR      68     170/  3/  5 1017.3F
SAINT JOSEPH      64      90/  2/  3 1017.6S
SOUTH LAKE BUOY   68 68  190/  6/  6 1016.7S         0
4 MI NW BRIDGMAN  67 71  180/  6/  6   N/A           0
MICHIGAN CITY     68 71  160/  2/  4   N/A           0

$$
&&



USA.gov is the U.S. government's official web portal to all federal, state and local government web resources and services.